Lewistown, MT

6:41 AM MST on January 16, 2018 (GMT -0700)
Lewistown Municipal

Weather History for KLWT - January, 2014

Change the Weather History Date:

Tuesday, January 14, 2014

  Actual Average Record
Temperature  
Mean Temperature 30 °F 24 °F  
Max Temperature 37 °F 34 °F 61 °F (2006)
Min Temperature 23 °F 13 °F -34 °F (1972)
Degree Days  
Heating Degree Days 35 41  
Month to date heating degree days 563 586  
Since 1 July heating degree days 3956 4008  
Cooling Degree Days 0 0  
Month to date cooling degree days 0 0  
Year to date cooling degree days 0 0  
Moisture  
Dew Point 23 °F    
Average Humidity 77    
Maximum Humidity 92    
Minimum Humidity 61    
Precipitation  
Precipitation T in 0.02 in 0.30 in (2016)
Month to date precipitation 0.54 0.27  
Year to date precipitation 0.54 0.27  
Snow  
Snow 0.00 in - - ()
Snow Depth 6.00 in    
Sea Level Pressure  
Sea Level Pressure 30.33 in    
Wind  
Wind Speed 11 mph (West)    
Max Wind Speed 21 mph    
Max Gust Speed 28 mph    
Visibility 8 miles    
Events Snow    
T = Trace of Precipitation, MM = Missing Value Source: NWS Daily Summary

Daily Weather History Graph

Daily Weather History Graph

Search for Another Location

Airport or City:

Trip Planner

Search our weather history database for the weather conditions in past years. The results will help you decide how hot, cold, wet, or windy it might be!

Date:

Astronomy

Jan. 14, 2014 Rise Set
Actual Time 7:59 AM MST 4:54 PM MST
Civil Twilight 7:25 AM MST 5:28 PM MST
Nautical Twilight 6:47 AM MST 6:06 PM MST
Astronomical Twilight 6:11 AM MST 6:43 PM MST
Moon 4:04 PM MST (1/14) 6:35 AM MST (1/14)
Length of Visible Light 10h 03m
Length of Day
8h 54m
Waxing Gibbous, 98% of the Moon is Illuminated
Jan 14
Waxing Gibbous
Jan 15
Full
Jan 23
Last Quarter
Jan 30
New
Feb 6
First Quarter

Hourly Weather History & Observations

Time (MST) Temp. Windchill Dew Point Humidity Pressure Visibility Wind Dir Wind Speed Gust Speed Precip Events Conditions
12:10 AM 26.1 °F 12.7 °F 24.1 °F 92% 30.22 in 2.0 mi WNW 18.4 mph 26.5 mph 0.00 in Snow Light Snow
12:23 AM 26.1 °F 12.7 °F 24.1 °F 92% 30.22 in 3.0 mi WNW 18.4 mph 27.6 mph 0.00 in   Overcast
12:54 AM 26.1 °F 13.6 °F 24.1 °F 92% 30.30 in 9.0 mi WNW 16.1 mph - 0.00 in Snow Light Snow
1:02 AM 26.1 °F 12.7 °F 24.1 °F 92% 30.24 in 4.0 mi WNW 18.4 mph 24.2 mph 0.00 in Snow Light Snow
1:11 AM 26.1 °F 14.0 °F 25.0 °F 96% 30.23 in 3.0 mi WNW 15.0 mph 24.2 mph 0.00 in Snow Light Snow
1:23 AM 26.1 °F 12.3 °F 24.1 °F 92% 30.23 in 3.0 mi West 19.6 mph - 0.00 in Snow Light Snow
1:31 AM 26.1 °F 12.7 °F 24.1 °F 92% 30.24 in 2.0 mi WNW 18.4 mph 27.6 mph 0.00 in Snow Light Snow
1:36 AM 26.1 °F 13.6 °F 24.1 °F 92% 30.24 in 3.0 mi West 16.1 mph - 0.00 in Snow Light Snow
1:54 AM 26.1 °F 13.1 °F 24.1 °F 92% 30.32 in 10.0 mi West 17.3 mph - 0.00 in   Overcast
2:54 AM 26.1 °F 15.0 °F 21.0 °F 81% 30.37 in 10.0 mi WNW 12.7 mph - 0.00 in   Overcast
3:54 AM 26.1 °F 14.0 °F 23.0 °F 88% 30.41 in 5.0 mi WNW 15.0 mph - 0.00 in Snow Light Snow
3:58 AM 26.1 °F 14.5 °F 23.0 °F 88% 30.31 in 2.5 mi WNW 13.8 mph - 0.00 in Snow Light Snow
4:20 AM 26.1 °F 14.5 °F 23.0 °F 88% 30.31 in 6.0 mi WNW 13.8 mph - 0.00 in Snow Light Snow
4:36 AM 25.0 °F 12.6 °F 23.0 °F 92% 30.32 in 4.0 mi WNW 15.0 mph - 0.00 in Snow Light Snow
4:54 AM 25.0 °F 13.6 °F 23.0 °F 92% 30.44 in 9.0 mi WNW 12.7 mph - 0.00 in   Overcast
5:54 AM 24.1 °F 12.5 °F 21.9 °F 91% 30.45 in 9.0 mi WSW 12.7 mph - 0.00 in   Overcast
6:54 AM 24.1 °F 12.5 °F 21.9 °F 91% 30.47 in 9.0 mi WSW 12.7 mph - 0.00 in Snow Light Snow
7:54 AM 24.1 °F 12.5 °F 21.9 °F 91% 30.47 in 9.0 mi SW 12.7 mph - 0.00 in   Overcast
8:54 AM 25.0 °F 14.2 °F 21.0 °F 85% 30.47 in 10.0 mi SW 11.5 mph - 0.00 in   Overcast
9:54 AM 24.1 °F 15.2 °F 19.0 °F 81% 30.50 in 10.0 mi SW 8.1 mph - N/A   Overcast
10:54 AM 25.0 °F 15.5 °F 18.0 °F 75% 30.47 in 10.0 mi SSW 9.2 mph - N/A   Partly Cloudy
11:54 AM 28.9 °F - 19.0 °F 67% 30.43 in 10.0 mi Calm Calm - N/A   Clear
12:54 PM 28.0 °F 24.2 °F 19.9 °F 72% 30.42 in 10.0 mi WSW 3.5 mph - N/A   Clear
1:54 PM 33.1 °F 24.4 °F 21.9 °F 64% 30.38 in 10.0 mi West 11.5 mph - N/A   Clear
2:54 PM 33.1 °F 24.9 °F 24.1 °F 70% 30.36 in 10.0 mi West 10.4 mph - N/A   Clear
3:54 PM 37.0 °F 29.3 °F 26.1 °F 65% 30.34 in 10.0 mi West 11.5 mph - N/A   Clear
4:54 PM 36.0 °F 26.0 °F 26.1 °F 67% 30.34 in 10.0 mi WSW 17.3 mph - N/A   Clear
5:54 PM 34.0 °F 24.2 °F 25.0 °F 70% 30.32 in 10.0 mi WSW 15.0 mph - N/A   Clear
6:54 PM 32.0 °F 25.6 °F 25.0 °F 75% 30.32 in 10.0 mi West 6.9 mph - N/A   Mostly Cloudy
7:54 PM 32.0 °F 28.7 °F 25.0 °F 75% 30.30 in 10.0 mi WNW 3.5 mph - N/A   Clear
8:54 PM 30.9 °F 24.3 °F 25.0 °F 79% 30.28 in 10.0 mi NW 6.9 mph - N/A   Clear
9:54 PM 33.1 °F 23.9 °F 25.0 °F 72% 30.23 in 10.0 mi West 12.7 mph - N/A   Clear
10:54 PM 35.1 °F 24.5 °F 26.1 °F 70% 30.21 in 10.0 mi WSW 18.4 mph - N/A   Clear
11:54 PM 33.1 °F 22.6 °F 26.1 °F 75% 30.16 in 10.0 mi SW 16.1 mph - N/A   Clear